owner,sensor,date,latitude,longitude,sea_surface_height_above_sea_level,qcFlag 
COMPS,ioos:station:USF.COMPS:FHP:1,2016-12-01T00:00:00Z,28.1530,-82.8010,-9.956,1111122 
COMPS,ioos:station:USF.COMPS:FHP:1,2016-12-01T00:06:00Z,28.1530,-82.8010,-9.943,1111122 
COMPS,ioos:station:USF.COMPS:FHP:1,2016-12-01T00:12:00Z,28.1530,-82.8010,-9.935,1111122 
COMPS,ioos:station:USF.COMPS:FHP:1,2016-12-01T00:18:00Z,28.1530,-82.8010,-9.926,1111122 
COMPS,ioos:station:USF.COMPS:FHP:1,2016-12-01T00:24:00Z,28.1530,-82.8010,-9.91,1111122 
COMPS,ioos:station:USF.COMPS:FHP:1,2016-12-01T00:30:00Z,28.1530,-82.8010,-9.904,1111122 
COMPS,ioos:station:USF.COMPS:FHP:1,2016-12-01T00:36:00Z,28.1530,-82.8010,-9.899,1111122 
COMPS,ioos:station:USF.COMPS:FHP:1,2016-12-01T00:42:00Z,28.1530,-82.8010,-9.887,1111122 
COMPS,ioos:station:USF.COMPS:FHP:1,2016-12-01T00:48:00Z,28.1530,-82.8010,-9.876,1111122 
COMPS,ioos:station:USF.COMPS:FHP:1,2016-12-01T00:54:00Z,28.1530,-82.8010,-9.864,1111122 
COMPS,ioos:station:USF.COMPS:FHP:1,2016-12-01T01:00:00Z,28.1530,-82.8010,-9.855,1111122 
COMPS,ioos:station:USF.COMPS:FHP:1,2016-12-01T01:06:00Z,28.1530,-82.8010,-9.843,1111122 
COMPS,ioos:station:USF.COMPS:FHP:1,2016-12-01T01:12:00Z,28.1530,-82.8010,-9.826,1111122 
COMPS,ioos:station:USF.COMPS:FHP:1,2016-12-01T01:18:00Z,28.1530,-82.8010,-9.81,1111122 
COMPS,ioos:station:USF.COMPS:FHP:1,2016-12-01T01:24:00Z,28.1530,-82.8010,-9.793,1111122 
COMPS,ioos:station:USF.COMPS:FHP:1,2016-12-01T01:30:00Z,28.1530,-82.8010,-9.78,1111122 
COMPS,ioos:station:USF.COMPS:FHP:1,2016-12-01T01:36:00Z,28.1530,-82.8010,-9.772,1111122 
COMPS,ioos:station:USF.COMPS:FHP:1,2016-12-01T01:42:00Z,28.1530,-82.8010,-9.76,1111122 
COMPS,ioos:station:USF.COMPS:FHP:1,2016-12-01T01:48:00Z,28.1530,-82.8010,-9.749,1111122 
COMPS,ioos:station:USF.COMPS:FHP:1,2016-12-01T01:54:00Z,28.1530,-82.8010,-9.738,1111122 
COMPS,ioos:station:USF.COMPS:FHP:1,2016-12-01T02:00:00Z,28.1530,-82.8010,-9.72,1111122 
COMPS,ioos:station:USF.COMPS:FHP:1,2016-12-01T02:06:00Z,28.1530,-82.8010,-9.705,1111122 
COMPS,ioos:station:USF.COMPS:FHP:1,2016-12-01T02:12:00Z,28.1530,-82.8010,-9.686,1111122 
COMPS,ioos:station:USF.COMPS:FHP:1,2016-12-01T02:18:00Z,28.1530,-82.8010,-9.674,1111122 
COMPS,ioos:station:USF.COMPS:FHP:1,2016-12-01T02:24:00Z,28.1530,-82.8010,-9.661,1111122 
COMPS,ioos:station:USF.COMPS:FHP:1,2016-12-01T02:30:00Z,28.1530,-82.8010,-9.644,1111122 
COMPS,ioos:station:USF.COMPS:FHP:1,2016-12-01T02:36:00Z,28.1530,-82.8010,-9.626,1111122 
COMPS,ioos:station:USF.COMPS:FHP:1,2016-12-01T02:42:00Z,28.1530,-82.8010,-9.614,1111122 
COMPS,ioos:station:USF.COMPS:FHP:1,2016-12-01T02:48:00Z,28.1530,-82.8010,-9.601,1111122 
COMPS,ioos:station:USF.COMPS:FHP:1,2016-12-01T02:54:00Z,28.1530,-82.8010,-9.583,1111122 
COMPS,ioos:station:USF.COMPS:FHP:1,2016-12-01T03:00:00Z,28.1530,-82.8010,-9.568,1111122 
COMPS,ioos:station:USF.COMPS:FHP:1,2016-12-01T03:06:00Z,28.1530,-82.8010,-9.554,1111122 
COMPS,ioos:station:USF.COMPS:FHP:1,2016-12-01T03:12:00Z,28.1530,-82.8010,-9.535,1111122 
COMPS,ioos:station:USF.COMPS:FHP:1,2016-12-01T03:18:00Z,28.1530,-82.8010,-9.521,1111122 
COMPS,ioos:station:USF.COMPS:FHP:1,2016-12-01T03:24:00Z,28.1530,-82.8010,-9.508,1111122 
COMPS,ioos:station:USF.COMPS:FHP:1,2016-12-01T03:30:00Z,28.1530,-82.8010,-9.489,1111122 
COMPS,ioos:station:USF.COMPS:FHP:1,2016-12-01T03:36:00Z,28.1530,-82.8010,-9.471,1111122 
COMPS,ioos:station:USF.COMPS:FHP:1,2016-12-01T03:42:00Z,28.1530,-82.8010,-9.46,1111122 
COMPS,ioos:station:USF.COMPS:FHP:1,2016-12-01T03:48:00Z,28.1530,-82.8010,-9.446,1111122 
COMPS,ioos:station:USF.COMPS:FHP:1,2016-12-01T03:54:00Z,28.1530,-82.8010,-9.433,1111122 
COMPS,ioos:station:USF.COMPS:FHP:1,2016-12-01T04:00:00Z,28.1530,-82.8010,-9.42,1111122 
COMPS,ioos:station:USF.COMPS:FHP:1,2016-12-01T04:06:00Z,28.1530,-82.8010,-9.411,1111122 
COMPS,ioos:station:USF.COMPS:FHP:1,2016-12-01T04:12:00Z,28.1530,-82.8010,-9.402,1111122 
COMPS,ioos:station:USF.COMPS:FHP:1,2016-12-01T04:18:00Z,28.1530,-82.8010,-9.396,1111122 
COMPS,ioos:station:USF.COMPS:FHP:1,2016-12-01T04:24:00Z,28.1530,-82.8010,-9.385,1111122 
COMPS,ioos:station:USF.COMPS:FHP:1,2016-12-01T04:30:00Z,28.1530,-82.8010,-9.38,1111122 
COMPS,ioos:station:USF.COMPS:FHP:1,2016-12-01T04:36:00Z,28.1530,-82.8010,-9.371,1111122 
COMPS,ioos:station:USF.COMPS:FHP:1,2016-12-01T04:42:00Z,28.1530,-82.8010,-9.371,1111122 
COMPS,ioos:station:USF.COMPS:FHP:1,2016-12-01T04:48:00Z,28.1530,-82.8010,-9.369,1111122 
COMPS,ioos:station:USF.COMPS:FHP:1,2016-12-01T04:54:00Z,28.1530,-82.8010,-9.374,1111122 
COMPS,ioos:station:USF.COMPS:FHP:1,2016-12-01T05:00:00Z,28.1530,-82.8010,-9.377,1111122 
COMPS,ioos:station:USF.COMPS:FHP:1,2016-12-01T05:06:00Z,28.1530,-82.8010,-9.373,1111122 
COMPS,ioos:station:USF.COMPS:FHP:1,2016-12-01T05:12:00Z,28.1530,-82.8010,-9.384,1111122 
COMPS,ioos:station:USF.COMPS:FHP:1,2016-12-01T05:18:00Z,28.1530,-82.8010,-9.391,1111122 
COMPS,ioos:station:USF.COMPS:FHP:1,2016-12-01T05:24:00Z,28.1530,-82.8010,-9.395,1111122 
COMPS,ioos:station:USF.COMPS:FHP:1,2016-12-01T05:30:00Z,28.1530,-82.8010,-9.412,1111122 
COMPS,ioos:station:USF.COMPS:FHP:1,2016-12-01T05:36:00Z,28.1530,-82.8010,-9.421,1111122 
COMPS,ioos:station:USF.COMPS:FHP:1,2016-12-01T05:42:00Z,28.1530,-82.8010,-9.44,1111122 
COMPS,ioos:station:USF.COMPS:FHP:1,2016-12-01T05:48:00Z,28.1530,-82.8010,-9.452,1111122 
COMPS,ioos:station:USF.COMPS:FHP:1,2016-12-01T05:54:00Z,28.1530,-82.8010,-9.467,1111122 
COMPS,ioos:station:USF.COMPS:FHP:1,2016-12-01T06:00:00Z,28.1530,-82.8010,-9.496,1111122 
COMPS,ioos:station:USF.COMPS:FHP:1,2016-12-01T06:06:00Z,28.1530,-82.8010,-9.5,1111122 
COMPS,ioos:station:USF.COMPS:FHP:1,2016-12-01T06:12:00Z,28.1530,-82.8010,-9.527,1111122 
COMPS,ioos:station:USF.COMPS:FHP:1,2016-12-01T06:18:00Z,28.1530,-82.8010,-9.538,1111122 
COMPS,ioos:station:USF.COMPS:FHP:1,2016-12-01T06:24:00Z,28.1530,-82.8010,-9.554,1111122 
COMPS,ioos:station:USF.COMPS:FHP:1,2016-12-01T06:30:00Z,28.1530,-82.8010,-9.576,1111122 
COMPS,ioos:station:USF.COMPS:FHP:1,2016-12-01T06:36:00Z,28.1530,-82.8010,-9.585,1111122 
COMPS,ioos:station:USF.COMPS:FHP:1,2016-12-01T06:42:00Z,28.1530,-82.8010,-9.608,1111122 
COMPS,ioos:station:USF.COMPS:FHP:1,2016-12-01T06:48:00Z,28.1530,-82.8010,-9.623,1111122 
COMPS,ioos:station:USF.COMPS:FHP:1,2016-12-01T06:54:00Z,28.1530,-82.8010,-9.644,1111122 
COMPS,ioos:station:USF.COMPS:FHP:1,2016-12-01T07:00:00Z,28.1530,-82.8010,-9.664,1111122 
COMPS,ioos:station:USF.COMPS:FHP:1,2016-12-01T07:06:00Z,28.1530,-82.8010,-9.688,1111122 
COMPS,ioos:station:USF.COMPS:FHP:1,2016-12-01T07:12:00Z,28.1530,-82.8010,-9.701,1111122 
COMPS,ioos:station:USF.COMPS:FHP:1,2016-12-01T07:18:00Z,28.1530,-82.8010,-9.726,1111122 
COMPS,ioos:station:USF.COMPS:FHP:1,2016-12-01T07:24:00Z,28.1530,-82.8010,-9.742,1111122 
COMPS,ioos:station:USF.COMPS:FHP:1,2016-12-01T07:30:00Z,28.1530,-82.8010,-9.758,1111122 
COMPS,ioos:station:USF.COMPS:FHP:1,2016-12-01T07:36:00Z,28.1530,-82.8010,-9.778,1111122 
COMPS,ioos:station:USF.COMPS:FHP:1,2016-12-01T07:42:00Z,28.1530,-82.8010,-9.802,1111122 
COMPS,ioos:station:USF.COMPS:FHP:1,2016-12-01T07:48:00Z,28.1530,-82.8010,-9.819,1111122 
COMPS,ioos:station:USF.COMPS:FHP:1,2016-12-01T07:54:00Z,28.1530,-82.8010,-9.836,1111122 
COMPS,ioos:station:USF.COMPS:FHP:1,2016-12-01T08:00:00Z,28.1530,-82.8010,-9.86,1111122 
COMPS,ioos:station:USF.COMPS:FHP:1,2016-12-01T08:06:00Z,28.1530,-82.8010,-9.87,1111122 
COMPS,ioos:station:USF.COMPS:FHP:1,2016-12-01T08:12:00Z,28.1530,-82.8010,-9.898,1111122 
COMPS,ioos:station:USF.COMPS:FHP:1,2016-12-01T08:18:00Z,28.1530,-82.8010,-9.912,1111122 
COMPS,ioos:station:USF.COMPS:FHP:1,2016-12-01T08:24:00Z,28.1530,-82.8010,-9.935,1111122 
COMPS,ioos:station:USF.COMPS:FHP:1,2016-12-01T08:30:00Z,28.1530,-82.8010,-9.954,1111122 
COMPS,ioos:station:USF.COMPS:FHP:1,2016-12-01T08:36:00Z,28.1530,-82.8010,-9.97,1111122 
COMPS,ioos:station:USF.COMPS:FHP:1,2016-12-01T08:42:00Z,28.1530,-82.8010,-9.994,1111122 
COMPS,ioos:station:USF.COMPS:FHP:1,2016-12-01T15:54:00Z,28.1530,-82.8010,-9.99,1111122 
COMPS,ioos:station:USF.COMPS:FHP:1,2016-12-01T16:00:00Z,28.1530,-82.8010,-9.969,1111122 
COMPS,ioos:station:USF.COMPS:FHP:1,2016-12-01T16:06:00Z,28.1530,-82.8010,-9.956,1111122 
COMPS,ioos:station:USF.COMPS:FHP:1,2016-12-01T16:12:00Z,28.1530,-82.8010,-9.943,1111122 
COMPS,ioos:station:USF.COMPS:FHP:1,2016-12-01T16:18:00Z,28.1530,-82.8010,-9.929,1111122 
COMPS,ioos:station:USF.COMPS:FHP:1,2016-12-01T16:24:00Z,28.1530,-82.8010,-9.919,1111122 
COMPS,ioos:station:USF.COMPS:FHP:1,2016-12-01T16:30:00Z,28.1530,-82.8010,-9.915,1111122 
COMPS,ioos:station:USF.COMPS:FHP:1,2016-12-01T16:36:00Z,28.1530,-82.8010,-9.909,1111122 
COMPS,ioos:station:USF.COMPS:FHP:1,2016-12-01T16:42:00Z,28.1530,-82.8010,-9.902,1111122 
COMPS,ioos:station:USF.COMPS:FHP:1,2016-12-01T16:48:00Z,28.1530,-82.8010,-9.89,1111122 
COMPS,ioos:station:USF.COMPS:FHP:1,2016-12-01T16:54:00Z,28.1530,-82.8010,-9.885,1111122 
COMPS,ioos:station:USF.COMPS:FHP:1,2016-12-01T17:00:00Z,28.1530,-82.8010,-9.865,1111122 
COMPS,ioos:station:USF.COMPS:FHP:1,2016-12-01T17:06:00Z,28.1530,-82.8010,-9.866,1111122 
COMPS,ioos:station:USF.COMPS:FHP:1,2016-12-01T17:12:00Z,28.1530,-82.8010,-9.859,1111122 
COMPS,ioos:station:USF.COMPS:FHP:1,2016-12-01T17:18:00Z,28.1530,-82.8010,-9.859,1111122 
COMPS,ioos:station:USF.COMPS:FHP:1,2016-12-01T17:24:00Z,28.1530,-82.8010,-9.859,1111122 
COMPS,ioos:station:USF.COMPS:FHP:1,2016-12-01T17:30:00Z,28.1530,-82.8010,-9.85,1111122 
COMPS,ioos:station:USF.COMPS:FHP:1,2016-12-01T17:36:00Z,28.1530,-82.8010,-9.852,1111122 
COMPS,ioos:station:USF.COMPS:FHP:1,2016-12-01T17:42:00Z,28.1530,-82.8010,-9.855,1111122 
COMPS,ioos:station:USF.COMPS:FHP:1,2016-12-01T17:48:00Z,28.1530,-82.8010,-9.851,1111122 
COMPS,ioos:station:USF.COMPS:FHP:1,2016-12-01T17:54:00Z,28.1530,-82.8010,-9.857,1111122 
COMPS,ioos:station:USF.COMPS:FHP:1,2016-12-01T18:00:00Z,28.1530,-82.8010,-9.861,1111122 
COMPS,ioos:station:USF.COMPS:FHP:1,2016-12-01T18:06:00Z,28.1530,-82.8010,-9.859,1111122 
COMPS,ioos:station:USF.COMPS:FHP:1,2016-12-01T18:12:00Z,28.1530,-82.8010,-9.868,1111122 
COMPS,ioos:station:USF.COMPS:FHP:1,2016-12-01T18:18:00Z,28.1530,-82.8010,-9.871,1111122 
COMPS,ioos:station:USF.COMPS:FHP:1,2016-12-01T18:24:00Z,28.1530,-82.8010,-9.867,1111122 
COMPS,ioos:station:USF.COMPS:FHP:1,2016-12-01T18:30:00Z,28.1530,-82.8010,-9.881,1111122 
COMPS,ioos:station:USF.COMPS:FHP:1,2016-12-01T18:36:00Z,28.1530,-82.8010,-9.893,1111122 
COMPS,ioos:station:USF.COMPS:FHP:1,2016-12-01T18:42:00Z,28.1530,-82.8010,-9.893,1111122 
COMPS,ioos:station:USF.COMPS:FHP:1,2016-12-01T18:48:00Z,28.1530,-82.8010,-9.907,1111122 
COMPS,ioos:station:USF.COMPS:FHP:1,2016-12-01T18:54:00Z,28.1530,-82.8010,-9.912,1111122 
COMPS,ioos:station:USF.COMPS:FHP:1,2016-12-01T19:00:00Z,28.1530,-82.8010,-9.922,1111122 
COMPS,ioos:station:USF.COMPS:FHP:1,2016-12-01T19:06:00Z,28.1530,-82.8010,-9.916,1111122 
COMPS,ioos:station:USF.COMPS:FHP:1,2016-12-01T19:12:00Z,28.1530,-82.8010,-9.925,1111122 
COMPS,ioos:station:USF.COMPS:FHP:1,2016-12-01T19:18:00Z,28.1530,-82.8010,-9.921,1111122 
COMPS,ioos:station:USF.COMPS:FHP:1,2016-12-01T19:24:00Z,28.1530,-82.8010,-9.922,1111122 
COMPS,ioos:station:USF.COMPS:FHP:1,2016-12-01T19:30:00Z,28.1530,-82.8010,-9.929,1111122 
COMPS,ioos:station:USF.COMPS:FHP:1,2016-12-01T19:36:00Z,28.1530,-82.8010,-9.93,1111122 
COMPS,ioos:station:USF.COMPS:FHP:1,2016-12-01T19:42:00Z,28.1530,-82.8010,-9.933,1111122 
COMPS,ioos:station:USF.COMPS:FHP:1,2016-12-01T19:48:00Z,28.1530,-82.8010,-9.94,1111122 
COMPS,ioos:station:USF.COMPS:FHP:1,2016-12-01T19:54:00Z,28.1530,-82.8010,-9.952,1111122 
COMPS,ioos:station:USF.COMPS:FHP:1,2016-12-01T20:00:00Z,28.1530,-82.8010,-9.956,1111122 
COMPS,ioos:station:USF.COMPS:FHP:1,2016-12-01T20:06:00Z,28.1530,-82.8010,-9.963,1111122 
COMPS,ioos:station:USF.COMPS:FHP:1,2016-12-01T20:12:00Z,28.1530,-82.8010,-9.978,1111122 
COMPS,ioos:station:USF.COMPS:FHP:1,2016-12-01T20:18:00Z,28.1530,-82.8010,-9.992,1111122 
COMPS,ioos:station:USF.COMPS:FHP:1,2016-12-02T01:54:00Z,28.1530,-82.8010,-9.988,1111122 
COMPS,ioos:station:USF.COMPS:FHP:1,2016-12-02T02:00:00Z,28.1530,-82.8010,-9.972,1111122 
COMPS,ioos:station:USF.COMPS:FHP:1,2016-12-02T02:06:00Z,28.1530,-82.8010,-9.954,1111122 
COMPS,ioos:station:USF.COMPS:FHP:1,2016-12-02T02:12:00Z,28.1530,-82.8010,-9.937,1111122 
COMPS,ioos:station:USF.COMPS:FHP:1,2016-12-02T02:18:00Z,28.1530,-82.8010,-9.917,1111122 
COMPS,ioos:station:USF.COMPS:FHP:1,2016-12-02T02:24:00Z,28.1530,-82.8010,-9.907,1111122 
COMPS,ioos:station:USF.COMPS:FHP:1,2016-12-02T02:30:00Z,28.1530,-82.8010,-9.886,1111122 
COMPS,ioos:station:USF.COMPS:FHP:1,2016-12-02T02:36:00Z,28.1530,-82.8010,-9.869,1111122 
COMPS,ioos:station:USF.COMPS:FHP:1,2016-12-02T02:42:00Z,28.1530,-82.8010,-9.854,1111122 
COMPS,ioos:station:USF.COMPS:FHP:1,2016-12-02T02:48:00Z,28.1530,-82.8010,-9.844,1111122 
COMPS,ioos:station:USF.COMPS:FHP:1,2016-12-02T02:54:00Z,28.1530,-82.8010,-9.826,1111122 
COMPS,ioos:station:USF.COMPS:FHP:1,2016-12-02T03:00:00Z,28.1530,-82.8010,-9.81,1111122 
COMPS,ioos:station:USF.COMPS:FHP:1,2016-12-02T03:06:00Z,28.1530,-82.8010,-9.797,1111122 
COMPS,ioos:station:USF.COMPS:FHP:1,2016-12-02T03:12:00Z,28.1530,-82.8010,-9.777,1111122 
COMPS,ioos:station:USF.COMPS:FHP:1,2016-12-02T03:18:00Z,28.1530,-82.8010,-9.762,1111122 
COMPS,ioos:station:USF.COMPS:FHP:1,2016-12-02T03:24:00Z,28.1530,-82.8010,-9.751,1111122 
COMPS,ioos:station:USF.COMPS:FHP:1,2016-12-02T03:30:00Z,28.1530,-82.8010,-9.735,1111122 
COMPS,ioos:station:USF.COMPS:FHP:1,2016-12-02T03:36:00Z,28.1530,-82.8010,-9.718,1111122 
COMPS,ioos:station:USF.COMPS:FHP:1,2016-12-02T03:42:00Z,28.1530,-82.8010,-9.711,1111122 
COMPS,ioos:station:USF.COMPS:FHP:1,2016-12-02T03:48:00Z,28.1530,-82.8010,-9.703,1111122 
COMPS,ioos:station:USF.COMPS:FHP:1,2016-12-02T03:54:00Z,28.1530,-82.8010,-9.685,1111122 
COMPS,ioos:station:USF.COMPS:FHP:1,2016-12-02T04:00:00Z,28.1530,-82.8010,-9.68,1111122 
COMPS,ioos:station:USF.COMPS:FHP:1,2016-12-02T04:06:00Z,28.1530,-82.8010,-9.675,1111122 
COMPS,ioos:station:USF.COMPS:FHP:1,2016-12-02T04:12:00Z,28.1530,-82.8010,-9.671,1111122 
COMPS,ioos:station:USF.COMPS:FHP:1,2016-12-02T04:18:00Z,28.1530,-82.8010,-9.664,1111122 
COMPS,ioos:station:USF.COMPS:FHP:1,2016-12-02T04:24:00Z,28.1530,-82.8010,-9.654,1111122 
COMPS,ioos:station:USF.COMPS:FHP:1,2016-12-02T04:30:00Z,28.1530,-82.8010,-9.646,1111122 
COMPS,ioos:station:USF.COMPS:FHP:1,2016-12-02T04:36:00Z,28.1530,-82.8010,-9.643,1111122 
COMPS,ioos:station:USF.COMPS:FHP:1,2016-12-02T04:42:00Z,28.1530,-82.8010,-9.642,1111122 
COMPS,ioos:station:USF.COMPS:FHP:1,2016-12-02T04:48:00Z,28.1530,-82.8010,-9.648,1111122 
COMPS,ioos:station:USF.COMPS:FHP:1,2016-12-02T04:54:00Z,28.1530,-82.8010,-9.643,1111122 
COMPS,ioos:station:USF.COMPS:FHP:1,2016-12-02T05:00:00Z,28.1530,-82.8010,-9.653,1111122 
COMPS,ioos:station:USF.COMPS:FHP:1,2016-12-02T05:06:00Z,28.1530,-82.8010,-9.644,1111122 
COMPS,ioos:station:USF.COMPS:FHP:1,2016-12-02T05:12:00Z,28.1530,-82.8010,-9.654,1111122 
COMPS,ioos:station:USF.COMPS:FHP:1,2016-12-02T05:18:00Z,28.1530,-82.8010,-9.654,1111122 
COMPS,ioos:station:USF.COMPS:FHP:1,2016-12-02T05:24:00Z,28.1530,-82.8010,-9.667,1111122 
COMPS,ioos:station:USF.COMPS:FHP:1,2016-12-02T05:30:00Z,28.1530,-82.8010,-9.661,1111122 
COMPS,ioos:station:USF.COMPS:FHP:1,2016-12-02T05:36:00Z,28.1530,-82.8010,-9.664,1111122 
COMPS,ioos:station:USF.COMPS:FHP:1,2016-12-02T05:42:00Z,28.1530,-82.8010,-9.66,1111122 
COMPS,ioos:station:USF.COMPS:FHP:1,2016-12-02T05:48:00Z,28.1530,-82.8010,-9.668,1111122 
COMPS,ioos:station:USF.COMPS:FHP:1,2016-12-02T05:54:00Z,28.1530,-82.8010,-9.671,1111122 
COMPS,ioos:station:USF.COMPS:FHP:1,2016-12-02T06:00:00Z,28.1530,-82.8010,-9.686,1111122 
COMPS,ioos:station:USF.COMPS:FHP:1,2016-12-02T06:06:00Z,28.1530,-82.8010,-9.697,1111122 
COMPS,ioos:station:USF.COMPS:FHP:1,2016-12-02T06:12:00Z,28.1530,-82.8010,-9.714,1111122 
COMPS,ioos:station:USF.COMPS:FHP:1,2016-12-02T06:18:00Z,28.1530,-82.8010,-9.716,1111122 
COMPS,ioos:station:USF.COMPS:FHP:1,2016-12-02T06:24:00Z,28.1530,-82.8010,-9.722,1111122 
COMPS,ioos:station:USF.COMPS:FHP:1,2016-12-02T06:30:00Z,28.1530,-82.8010,-9.734,1111122 
COMPS,ioos:station:USF.COMPS:FHP:1,2016-12-02T06:36:00Z,28.1530,-82.8010,-9.735,1111122 
COMPS,ioos:station:USF.COMPS:FHP:1,2016-12-02T06:42:00Z,28.1530,-82.8010,-9.744,1111122 
COMPS,ioos:station:USF.COMPS:FHP:1,2016-12-02T06:48:00Z,28.1530,-82.8010,-9.76,1111122 
COMPS,ioos:station:USF.COMPS:FHP:1,2016-12-02T06:54:00Z,28.1530,-82.8010,-9.778,1111122 
COMPS,ioos:station:USF.COMPS:FHP:1,2016-12-02T07:00:00Z,28.1530,-82.8010,-9.797,1111122 
COMPS,ioos:station:USF.COMPS:FHP:1,2016-12-02T07:06:00Z,28.1530,-82.8010,-9.816,1111122 
COMPS,ioos:station:USF.COMPS:FHP:1,2016-12-02T07:12:00Z,28.1530,-82.8010,-9.832,1111122 
COMPS,ioos:station:USF.COMPS:FHP:1,2016-12-02T07:18:00Z,28.1530,-82.8010,-9.848,1111122 
COMPS,ioos:station:USF.COMPS:FHP:1,2016-12-02T07:24:00Z,28.1530,-82.8010,-9.856,1111122 
COMPS,ioos:station:USF.COMPS:FHP:1,2016-12-02T07:30:00Z,28.1530,-82.8010,-9.874,1111122 
COMPS,ioos:station:USF.COMPS:FHP:1,2016-12-02T07:36:00Z,28.1530,-82.8010,-9.882,1111122 
COMPS,ioos:station:USF.COMPS:FHP:1,2016-12-02T07:42:00Z,28.1530,-82.8010,-9.899,1111122 
COMPS,ioos:station:USF.COMPS:FHP:1,2016-12-02T07:54:00Z,28.1530,-82.8010,-9.939,1111122 
COMPS,ioos:station:USF.COMPS:FHP:1,2016-12-02T08:00:00Z,28.1530,-82.8010,-9.956,1111122 
COMPS,ioos:station:USF.COMPS:FHP:1,2016-12-02T08:06:00Z,28.1530,-82.8010,-9.98,1111122 
COMPS,ioos:station:USF.COMPS:FHP:1,2016-12-02T08:12:00Z,28.1530,-82.8010,-9.997,1111122 
COMPS,ioos:station:USF.COMPS:FHP:1,2016-12-03T03:48:00Z,28.1530,-82.8010,-9.996,1111122 
COMPS,ioos:station:USF.COMPS:FHP:1,2016-12-03T03:54:00Z,28.1530,-82.8010,-9.987,1111122 
COMPS,ioos:station:USF.COMPS:FHP:1,2016-12-03T04:00:00Z,28.1530,-82.8010,-9.976,1111122 
COMPS,ioos:station:USF.COMPS:FHP:1,2016-12-03T04:12:00Z,28.1530,-82.8010,-9.967,1111122 
COMPS,ioos:station:USF.COMPS:FHP:1,2016-12-03T04:24:00Z,28.1530,-82.8010,-9.946,1111122 
COMPS,ioos:station:USF.COMPS:FHP:1,2016-12-03T04:36:00Z,28.1530,-82.8010,-9.922,1111122 
COMPS,ioos:station:USF.COMPS:FHP:1,2016-12-03T04:42:00Z,28.1530,-82.8010,-9.915,1111122 
COMPS,ioos:station:USF.COMPS:FHP:1,2016-12-03T04:54:00Z,28.1530,-82.8010,-9.905,1111122 
COMPS,ioos:station:USF.COMPS:FHP:1,2016-12-03T05:00:00Z,28.1530,-82.8010,-9.909,1111122 
COMPS,ioos:station:USF.COMPS:FHP:1,2016-12-03T05:06:00Z,28.1530,-82.8010,-9.905,1111122 
COMPS,ioos:station:USF.COMPS:FHP:1,2016-12-03T05:12:00Z,28.1530,-82.8010,-9.895,1111122 
COMPS,ioos:station:USF.COMPS:FHP:1,2016-12-03T05:18:00Z,28.1530,-82.8010,-9.882,1111122 
COMPS,ioos:station:USF.COMPS:FHP:1,2016-12-03T05:24:00Z,28.1530,-82.8010,-9.885,1111122 
COMPS,ioos:station:USF.COMPS:FHP:1,2016-12-03T05:30:00Z,28.1530,-82.8010,-9.89,1111122 
COMPS,ioos:station:USF.COMPS:FHP:1,2016-12-03T05:36:00Z,28.1530,-82.8010,-9.893,1111122 
COMPS,ioos:station:USF.COMPS:FHP:1,2016-12-03T05:42:00Z,28.1530,-82.8010,-9.895,1111122 
COMPS,ioos:station:USF.COMPS:FHP:1,2016-12-03T05:48:00Z,28.1530,-82.8010,-9.898,1111122 
COMPS,ioos:station:USF.COMPS:FHP:1,2016-12-03T05:54:00Z,28.1530,-82.8010,-9.899,1111122 
COMPS,ioos:station:USF.COMPS:FHP:1,2016-12-03T06:00:00Z,28.1530,-82.8010,-9.895,1111122 
COMPS,ioos:station:USF.COMPS:FHP:1,2016-12-03T06:06:00Z,28.1530,-82.8010,-9.92,1111122 
COMPS,ioos:station:USF.COMPS:FHP:1,2016-12-03T06:12:00Z,28.1530,-82.8010,-9.916,1111122 
COMPS,ioos:station:USF.COMPS:FHP:1,2016-12-03T06:18:00Z,28.1530,-82.8010,-9.92,1111122 
COMPS,ioos:station:USF.COMPS:FHP:1,2016-12-03T06:24:00Z,28.1530,-82.8010,-9.922,1111122 
COMPS,ioos:station:USF.COMPS:FHP:1,2016-12-03T06:30:00Z,28.1530,-82.8010,-9.916,1111122 
COMPS,ioos:station:USF.COMPS:FHP:1,2016-12-03T06:36:00Z,28.1530,-82.8010,-9.919,1111122 
COMPS,ioos:station:USF.COMPS:FHP:1,2016-12-03T06:42:00Z,28.1530,-82.8010,-9.936,1111122 
COMPS,ioos:station:USF.COMPS:FHP:1,2016-12-03T06:48:00Z,28.1530,-82.8010,-9.94,1111122 
COMPS,ioos:station:USF.COMPS:FHP:1,2016-12-03T06:54:00Z,28.1530,-82.8010,-9.944,1111122 
COMPS,ioos:station:USF.COMPS:FHP:1,2016-12-03T07:00:00Z,28.1530,-82.8010,-9.959,1111122 
COMPS,ioos:station:USF.COMPS:FHP:1,2016-12-03T07:06:00Z,28.1530,-82.8010,-9.953,1111122 
COMPS,ioos:station:USF.COMPS:FHP:1,2016-12-03T07:12:00Z,28.1530,-82.8010,-9.956,1111122 
COMPS,ioos:station:USF.COMPS:FHP:1,2016-12-03T07:18:00Z,28.1530,-82.8010,-9.97,1111122 
COMPS,ioos:station:USF.COMPS:FHP:1,2016-12-03T07:24:00Z,28.1530,-82.8010,-9.962,1111122 
COMPS,ioos:station:USF.COMPS:FHP:1,2016-12-03T07:30:00Z,28.1530,-82.8010,-9.979,1111122 
COMPS,ioos:station:USF.COMPS:FHP:1,2016-12-03T07:36:00Z,28.1530,-82.8010,-9.996,1111122 
COMPS,ioos:station:USF.COMPS:FHP:1,2016-12-03T19:18:00Z,28.1530,-82.8010,-9.997,1111122 
COMPS,ioos:station:USF.COMPS:FHP:1,2016-12-03T19:24:00Z,28.1530,-82.8010,-9.987,1111122 
COMPS,ioos:station:USF.COMPS:FHP:1,2016-12-03T19:30:00Z,28.1530,-82.8010,-9.975,1111122 
COMPS,ioos:station:USF.COMPS:FHP:1,2016-12-03T19:36:00Z,28.1530,-82.8010,-9.975,1111122 
COMPS,ioos:station:USF.COMPS:FHP:1,2016-12-03T19:42:00Z,28.1530,-82.8010,-9.969,1111122 
COMPS,ioos:station:USF.COMPS:FHP:1,2016-12-03T19:48:00Z,28.1530,-82.8010,-9.978,1111122 
COMPS,ioos:station:USF.COMPS:FHP:1,2016-12-03T19:54:00Z,28.1530,-82.8010,-9.976,1111122 
COMPS,ioos:station:USF.COMPS:FHP:1,2016-12-03T20:00:00Z,28.1530,-82.8010,-9.973,1111122 
COMPS,ioos:station:USF.COMPS:FHP:1,2016-12-03T20:06:00Z,28.1530,-82.8010,-9.966,1111122 
COMPS,ioos:station:USF.COMPS:FHP:1,2016-12-03T20:12:00Z,28.1530,-82.8010,-9.956,1111122 
COMPS,ioos:station:USF.COMPS:FHP:1,2016-12-03T20:18:00Z,28.1530,-82.8010,-9.959,1111122 
COMPS,ioos:station:USF.COMPS:FHP:1,2016-12-03T20:24:00Z,28.1530,-82.8010,-9.944,1111122 
COMPS,ioos:station:USF.COMPS:FHP:1,2016-12-03T20:30:00Z,28.1530,-82.8010,-9.954,1111122 
COMPS,ioos:station:USF.COMPS:FHP:1,2016-12-03T20:36:00Z,28.1530,-82.8010,-9.95,1111122 
COMPS,ioos:station:USF.COMPS:FHP:1,2016-12-03T20:42:00Z,28.1530,-82.8010,-9.963,1111122 
COMPS,ioos:station:USF.COMPS:FHP:1,2016-12-03T20:48:00Z,28.1530,-82.8010,-9.963,1111122 
COMPS,ioos:station:USF.COMPS:FHP:1,2016-12-03T20:54:00Z,28.1530,-82.8010,-9.956,1111122 
COMPS,ioos:station:USF.COMPS:FHP:1,2016-12-03T21:00:00Z,28.1530,-82.8010,-9.966,1111122 
COMPS,ioos:station:USF.COMPS:FHP:1,2016-12-03T21:06:00Z,28.1530,-82.8010,-9.969,1111122 
COMPS,ioos:station:USF.COMPS:FHP:1,2016-12-03T21:12:00Z,28.1530,-82.8010,-9.983,1111122 
COMPS,ioos:station:USF.COMPS:FHP:1,2016-12-03T21:18:00Z,28.1530,-82.8010,-9.985,1111122 
COMPS,ioos:station:USF.COMPS:FHP:1,2016-12-03T21:24:00Z,28.1530,-82.8010,-9.994,1111122 
COMPS,ioos:station:USF.COMPS:FHP:1,2016-12-04T03:24:00Z,28.1530,-82.8010,-9.997,1111122 
COMPS,ioos:station:USF.COMPS:FHP:1,2016-12-04T03:30:00Z,28.1530,-82.8010,-9.989,1111122 
COMPS,ioos:station:USF.COMPS:FHP:1,2016-12-04T03:36:00Z,28.1530,-82.8010,-9.974,1111122 
COMPS,ioos:station:USF.COMPS:FHP:1,2016-12-04T03:42:00Z,28.1530,-82.8010,-9.959,1111122 
COMPS,ioos:station:USF.COMPS:FHP:1,2016-12-04T03:48:00Z,28.1530,-82.8010,-9.94,1111122 
COMPS,ioos:station:USF.COMPS:FHP:1,2016-12-04T03:54:00Z,28.1530,-82.8010,-9.927,1111122 
COMPS,ioos:station:USF.COMPS:FHP:1,2016-12-04T04:00:00Z,28.1530,-82.8010,-9.912,1111122 
COMPS,ioos:station:USF.COMPS:FHP:1,2016-12-04T04:06:00Z,28.1530,-82.8010,-9.899,1111122 
COMPS,ioos:station:USF.COMPS:FHP:1,2016-12-04T04:12:00Z,28.1530,-82.8010,-9.892,1111122 
COMPS,ioos:station:USF.COMPS:FHP:1,2016-12-04T04:18:00Z,28.1530,-82.8010,-9.879,1111122 
COMPS,ioos:station:USF.COMPS:FHP:1,2016-12-04T04:24:00Z,28.1530,-82.8010,-9.877,1111122 
COMPS,ioos:station:USF.COMPS:FHP:1,2016-12-04T04:30:00Z,28.1530,-82.8010,-9.863,1111122 
COMPS,ioos:station:USF.COMPS:FHP:1,2016-12-04T04:36:00Z,28.1530,-82.8010,-9.861,1111122 
COMPS,ioos:station:USF.COMPS:FHP:1,2016-12-04T04:42:00Z,28.1530,-82.8010,-9.841,1111122 
COMPS,ioos:station:USF.COMPS:FHP:1,2016-12-04T04:48:00Z,28.1530,-82.8010,-9.826,1111122 
COMPS,ioos:station:USF.COMPS:FHP:1,2016-12-04T04:54:00Z,28.1530,-82.8010,-9.821,1111122 